NOAA 16 DEB, 41139

Orbit data source: Space-Track

NOAA 16 DEB, 41139 is space debris in SSO originally from a launch on Thu, 21 Sep 2000 UTC launched from the Air Force Western Test Range (AFWTR). Debris objects in space refer to the collection of defunct objects orbiting the Earth. Examples of debris include non-operational satellites, rocket bodies, and fragments generated from explosions, collisions, or faulty payload assembly.

Loading next visibility...
Identifier
41139, 2000-055BW
Orbit
SSO
Country
Flag of USUS
Related business
Manufacturer
Unknown
Mission
Spacecraft
Bus & Motor
Unknown
Mass
Unknown
Launch date (UTC)
2000-09-21 (25 years ago)
Launch vehicle
Unknown
Launch site
Air Force Western Test Range (AFWTR)
Object type
Payload
Rocket body
Debris
Shape & HBR
Unknown shape, 0.1 m
Radar Cross Section
Small (<0.1 m²)

Expand to show TLE details & history
Last TLE update: 1 week ago

TLE from 1 week ago
0 NOAA 16 DEB
1 41139U 00055BW  26065.96524550  .00004809  00000-0  23755-2 0  9998
2 41139  98.9916 130.6368 0054433 309.2418  50.3932 14.17097840524964
Epoch: 2026-03-06T23:09Z
TLE epoch observation values (Epoch: 2026-03-06T23:09:57.211Z)
Latitude
Longitude
-21.54526°
Altitude
813.177 km
Speed
7.46 km/s
True Right ascension
08h 42m 32s
True Declination
0° 00' 00"
Sunlit
Object was in full shadow at epoch
Visualization orbit readout
Latitude
Unknown
Longitude
Unknown
Altitude
Unknown
Speed
Unknown
Apparent Right ascension
Unknown
Apparent Declination
Unknown
Sunlit
N/A
Visualization observer readout
Local Sidereal Time
18:49:50
Azimuth
Unknown
Elevation
Unknown
Doppler factor
Unknown
Orbital elements
Apogee altitude
871.609 km
Perigee altitude
793.112 km
Semi-major axis
7,210.497 km
Eccentricity
0.00544
Inclination
98.9916°
RAAN
130.6368°
Arg. of periapsis
309.2418°
True anomaly
50.87585°
Mean anomaly
50.3932°
Eccentric anomaly
50.63432°
Mean motion
3.54483 °/min
Orbital period
101.56 mins
BSTAR
0.0023755
Loading maneuver chart data...
Computing Atmospheric mass density...
Loading historical data...
Loading historical data...
Loading historical data...
Loading historical data...
Loading historical data...
Loading historical data...
Loading historical data...

Documentation

Showing up to 5 results
|